Pecs, Hungary

5:43 AM CET on February 22, 2017 (GMT +0100)
Pecs

Weather History for LHPP - November, 2012

Change the Weather History Date:

Sunday, November 25, 2012

  Actual Average Record
Temperature  
Mean Temperature 42 °F -  
Max Temperature 46 °F 40 °F - ()
Min Temperature 38 °F 30 °F - ()
Degree Days  
Heating Degree Days 23    
Moisture  
Dew Point 42 °F    
Average Humidity 96    
Maximum Humidity 100    
Minimum Humidity 93    
Precipitation  
Precipitation 0.00 in 0.06 in - ()
Sea Level Pressure  
Sea Level Pressure 30.17 in    
Wind  
Wind Speed 5 mph ()    
Max Wind Speed 8 mph    
Max Gust Speed -    
Visibility 0.5 miles    
Events Fog    
T = Trace of Precipitation, MM = Missing Value Source: Averaged Metar Reports

Daily Weather History Graph

Daily Weather History Graph

Search for Another Location

Airport or City:

Trip Planner

Search our weather history database for the weather conditions in past years. The results will help you decide how hot, cold, wet, or windy it might be!

Date:

Astronomy

Nov. 25, 2012 Rise Set
Actual Time 7:01 AM CET 4:06 PM CET
Civil Twilight 6:27 AM CET 4:40 PM CET
Nautical Twilight 5:50 AM CET 5:16 PM CET
Astronomical Twilight 5:15 AM CET 5:52 PM CET
Moon 2:19 PM CET (11/25) 3:51 AM CET (11/25)
Length of Visible Light 10h 12m
Length of Day
9h 05m
Waxing Gibbous, 91% of the Moon is Illuminated
Nov 25
Waxing Gibbous
Nov 28
Full
Dec 6
Last Quarter
Dec 13
New
Dec 20
First Quarter

Hourly Weather History & Observations

Time (CET) Temp. Windchill Dew Point Humidity Pressure Visibility Wind Dir Wind Speed Gust Speed Precip Events Conditions
12:45 AM 39.2 °F - 39.2 °F 100% 30.21 in 1.9 mi NE 1.2 mph - N/A   Overcast
1:00 AM 39 °F - 39 °F 98% 30.25 in 2 mi NE 2.2 mph - -   Mist
1:11 AM 41.0 °F - 39.2 °F 93% 30.24 in 0.2 mi ENE 2.3 mph - N/A Fog Fog
1:45 AM 39.2 °F 35.9 °F 39.2 °F 100% 30.21 in 0.2 mi East 4.6 mph - N/A Fog Fog
2:45 AM 39.2 °F 35.9 °F 39.2 °F 100% 30.18 in 0.2 mi ESE 4.6 mph - N/A Fog Fog
3:45 AM 41.0 °F 37.1 °F 39.2 °F 93% 30.18 in 0.2 mi ESE 5.8 mph - N/A Fog Fog
4:45 AM 41.0 °F 37.1 °F 39.2 °F 93% 30.18 in 0.2 mi ESE 5.8 mph - N/A Fog Fog
5:15 AM 41.0 °F 36.4 °F 39.2 °F 93% 30.15 in 0.2 mi East 6.9 mph - N/A Fog Fog
5:45 AM 41.0 °F 37.1 °F 39.2 °F 93% 30.15 in 0.2 mi East 5.8 mph - N/A Fog Fog
6:00 AM - - - N/A% - 0.2 mi East 6.9 mph - N/A Fog Fog
6:15 AM 41.0 °F 37.1 °F 39.2 °F 93% 30.15 in 0.2 mi East 5.8 mph - N/A Fog Fog
6:45 AM 41.0 °F 38.0 °F 39.2 °F 93% 30.18 in 0.2 mi East 4.6 mph - N/A Fog Fog
7:00 AM 40 °F - 40 °F 98% 30.20 in 0 mi East 4.5 mph - - Fog Partial Fog
7:15 AM 41.0 °F 36.4 °F 39.2 °F 93% 30.18 in 0.1 mi East 6.9 mph - N/A Fog Fog
7:45 AM 39.2 °F 33.6 °F 39.2 °F 100% 30.18 in 0.1 mi East 8.1 mph - N/A Fog Fog
8:15 AM 41.0 °F 36.4 °F 39.2 °F 93% 30.18 in 0.1 mi East 6.9 mph - N/A Fog Fog
8:45 AM 39.2 °F 34.2 °F 39.2 °F 100% 30.18 in 0.1 mi East 6.9 mph - N/A Fog Fog
9:00 AM - - - N/A% - 0.1 mi East 6.9 mph - N/A Fog Fog
9:15 AM 41.0 °F 35.8 °F 39.2 °F 93% 30.18 in 0.1 mi East 8.1 mph - N/A Fog Fog
9:45 AM 41.0 °F 35.8 °F 39.2 °F 93% 30.18 in 0.1 mi East 8.1 mph - N/A Fog Fog
10:15 AM 41.0 °F 35.8 °F 41.0 °F 100% 30.18 in 0.0 mi East 8.1 mph - N/A Fog Fog
10:45 AM 42.8 °F 38.0 °F 41.0 °F 93% 30.18 in 0.1 mi East 8.1 mph - N/A Fog Fog
11:15 AM 42.8 °F 38.6 °F 41.0 °F 93% 30.18 in 0.1 mi East 6.9 mph - N/A Fog Fog
11:45 AM 42.8 °F 38.6 °F 42.8 °F 100% 30.18 in 0.1 mi East 6.9 mph - N/A Fog Fog
12:00 PM - - - N/A% - 0.1 mi East 6.9 mph - N/A Fog Fog
12:15 PM 42.8 °F 38.6 °F 42.8 °F 100% 30.15 in 0.1 mi East 6.9 mph - N/A Fog Fog
12:45 PM 44.6 °F 41.4 °F 42.8 °F 93% 30.15 in 0.6 mi East 5.8 mph - N/A Fog Fog
1:00 PM 44 °F - 44 °F 97% 30.18 in 1 mi East 6.7 mph - - Fog Partial Fog
1:04 PM 44.6 °F 40.7 °F 44.6 °F 100% 30.18 in 0.9 mi East 6.9 mph - N/A   Overcast
1:15 PM 44.6 °F 40.7 °F 44.6 °F 100% 30.15 in 0.9 mi East 6.9 mph - N/A   Overcast
1:45 PM 46.4 °F 43.5 °F 44.6 °F 93% 30.15 in 0.9 mi East 5.8 mph - N/A   Overcast
2:15 PM 46.4 °F 42.9 °F 46.4 °F 100% 30.15 in 1.4 mi East 6.9 mph - N/A   Mostly Cloudy
2:39 PM 46.4 °F 42.9 °F 44.6 °F 93% 30.15 in 1.6 mi ESE 6.9 mph - N/A   Mostly Cloudy
2:45 PM 46.4 °F 42.9 °F 44.6 °F 93% 30.15 in 1.6 mi ESE 6.9 mph - N/A   Mostly Cloudy
3:00 PM - - - N/A% - 1.9 mi East 6.9 mph - N/A   Overcast
3:15 PM 46.4 °F 42.9 °F 46.4 °F 100% 30.15 in 1.6 mi ESE 6.9 mph - N/A   Mostly Cloudy
3:45 PM 46.4 °F 42.9 °F 44.6 °F 93% 30.15 in 1.2 mi ESE 6.9 mph - N/A   Mostly Cloudy
4:15 PM 46.4 °F 43.5 °F 44.6 °F 93% 30.15 in 1.1 mi East 5.8 mph - N/A   Mostly Cloudy
4:20 PM 46.4 °F 43.5 °F 44.6 °F 93% 30.18 in 0.7 mi East 5.8 mph - N/A   Mostly Cloudy
4:45 PM 44.6 °F 41.4 °F 44.6 °F 100% 30.15 in 0.7 mi East 5.8 mph - N/A   Mostly Cloudy
5:15 PM 44.6 °F 41.4 °F 44.6 °F 100% 30.15 in 0.7 mi East 5.8 mph - N/A   Mostly Cloudy
5:45 PM 44.6 °F 41.4 °F 42.8 °F 93% 30.15 in 0.7 mi ENE 5.8 mph - N/A   Mostly Cloudy
6:15 PM 44.6 °F 41.4 °F 42.8 °F 93% 30.15 in 0.6 mi East 5.8 mph - N/A Fog Fog
6:34 PM 44.6 °F 41.4 °F 42.8 °F 93% 30.18 in 0.4 mi East 5.8 mph - N/A Fog Fog
6:45 PM 42.8 °F 39.3 °F 42.8 °F 100% 30.15 in 0.4 mi East 5.8 mph - N/A Fog Fog
7:00 PM 44 °F - 43 °F 94% 30.17 in 0 mi East 6.7 mph - - Fog Partial Fog
7:15 PM 42.8 °F 38.6 °F 42.8 °F 100% 30.15 in 0.1 mi East 6.9 mph - N/A Fog Fog
7:45 PM 44.6 °F 41.4 °F 42.8 °F 93% 30.15 in 0.1 mi ENE 5.8 mph - N/A Fog Fog
8:15 PM 42.8 °F 39.3 °F 42.8 °F 100% 30.15 in 0.1 mi ENE 5.8 mph - N/A Fog Fog
8:45 PM 42.8 °F 39.3 °F 42.8 °F 100% 30.15 in 0.1 mi ENE 5.8 mph - N/A Fog Fog
9:42 PM 44.6 °F 41.4 °F 42.8 °F 93% 30.18 in 0.4 mi ENE 5.8 mph - N/A Fog Fog
9:45 PM 44.6 °F 41.4 °F 42.8 °F 93% 30.15 in 0.4 mi ENE 5.8 mph - N/A Fog Fog
10:30 PM 44.6 °F 41.4 °F 44.6 °F 100% 30.15 in 0.6 mi ENE 5.8 mph - N/A Fog Fog
10:45 PM 44.6 °F 42.2 °F 44.6 °F 100% 30.15 in 0.6 mi ENE 4.6 mph - N/A Fog Fog
11:45 PM 44.6 °F 43.1 °F 42.8 °F 93% 30.15 in 0.6 mi ENE 3.5 mph - N/A Fog Fog